Weather History for MMMZ - March, 2013

Change the Weather History Date:

Monday, March 18, 2013

  Actual Average Record
Temperature  
Mean Temperature 68 °F -  
Max Temperature 82 °F 79 °F 86 °F (1997)
Min Temperature 53 °F 52 °F 48 °F (2001)
Cooling Degree Days 2    
Growing Degree Days 18 (Base 50)    
Moisture  
Dew Point 55 °F    
Average Humidity 72    
Maximum Humidity 100    
Minimum Humidity 39    
Precipitation  
Precipitation 0.00 in - - ()
Sea Level Pressure  
Sea Level Pressure 29.94 in    
Wind  
Wind Speed 7 mph ()    
Max Wind Speed 14 mph    
Max Gust Speed -    
Visibility 8.6 miles    
Events Fog    
Averages and records for this station are not official NWS values.
T = Trace of Precipitation, MM = Missing Value Source: Averaged Metar Reports

Daily Weather History Graph

Daily Weather History Graph

Search for Another Location

Airport or City:

Trip Planner

Search our weather history database for the weather conditions in past years. The results will help you decide how hot, cold, wet, or windy it might be!

Date:

Astronomy

Mar. 18, 2013 Rise Set
Actual Time 6:10 AM MST 6:15 PM MST
Civil Twilight 5:48 AM MST 6:38 PM MST
Nautical Twilight 5:22 AM MST 7:04 PM MST
Astronomical Twilight 4:55 AM MST 7:30 PM MST
Moon 10:50 AM MST (3/18) No Moon Set
Length of Visible Light 12h 49m
Length of Day
12h 04m
Waxing Crescent, 41% of the Moon is Illuminated
Mar 18
Waxing Crescent
Mar 19
First Quarter
Mar 27
Full
Apr 2
Last Quarter
Apr 10
New

Hourly Weather History & Observations

Time (MST) Temp. Heat Index Dew Point Humidity Pressure Visibility Wind Dir Wind Speed Gust Speed Precip Events Conditions
12:40 AM 55.4 °F - 51.8 °F 88% 29.96 in 10.0 mi NNE 6.9 mph - N/A   Clear
1:40 AM 53.6 °F - 44.6 °F 72% 29.95 in 10.0 mi NNE 8.1 mph - N/A   Clear
2:42 AM 55.4 °F - 53.6 °F 94% 29.94 in 1.0 mi NNE 8.1 mph - N/A   Clear
3:40 AM 55.4 °F - 53.6 °F 94% 29.94 in 0.0 mi NE 6.9 mph - N/A Fog Fog
4:42 AM 55.4 °F - 53.6 °F 94% 29.95 in 1.0 mi North 8.1 mph - N/A   Mist
5:43 AM 55.4 °F - 53.6 °F 94% 29.96 in 0.5 mi NNE 8.1 mph - N/A Fog Fog
6:43 AM 55.4 °F - 55.4 °F 100% 29.98 in 0.2 mi NNE 6.9 mph - N/A Fog Fog
7:06 AM 59.0 °F - 59.0 °F 100% 29.99 in 0.0 mi North 6.9 mph - N/A Fog Fog
7:43 AM 60.8 °F - 55.4 °F 82% 29.98 in 0.2 mi North 6.9 mph - N/A Fog Fog
8:06 AM 60.8 °F - 55.4 °F 82% 29.99 in 1.0 mi NNE 6.9 mph - N/A   Overcast
8:29 AM 60.8 °F - 57.2 °F 88% 29.99 in 3.0 mi West 6.9 mph - N/A   Partly Cloudy
8:46 AM 62.6 °F - 57.2 °F 82% 29.99 in 7.0 mi SSE 5.8 mph - N/A   Partly Cloudy
9:40 AM 71.6 °F - 60.8 °F 69% 29.99 in 12.0 mi WSW 8.1 mph - N/A   Clear
10:40 AM 78.8 °F - 59.0 °F 51% 29.98 in 15.0 mi South 6.9 mph - N/A   Clear
11:42 AM 78.8 °F - 57.2 °F 47% 29.95 in 15.0 mi South 9.2 mph - N/A   Clear
12:42 PM 80.6 °F 80.5 °F 55.4 °F 42% 29.93 in 15.0 mi SW 10.4 mph - N/A   Clear
1:40 PM 82.4 °F 81.7 °F 55.4 °F 39% 29.90 in 15.0 mi SW 11.5 mph - N/A   Clear
2:42 PM 80.6 °F 80.8 °F 57.2 °F 45% 29.88 in 15.0 mi SW 11.5 mph - N/A   Clear
3:41 PM 80.6 °F 80.5 °F 55.4 °F 42% 29.88 in 15.0 mi SW 10.4 mph - N/A   Clear
4:44 PM 77.0 °F - 55.4 °F 47% 29.89 in 15.0 mi WSW 13.8 mph - N/A   Clear
5:41 PM 73.4 °F - 55.4 °F 53% 29.89 in 15.0 mi West 10.4 mph - N/A   Clear
6:43 PM 69.8 °F - 51.8 °F 53% 29.92 in 12.0 mi WNW 6.9 mph - N/A   Clear
7:42 PM 62.6 °F - 51.8 °F 68% 29.92 in 12.0 mi West 8.1 mph - N/A   Clear
8:45 PM 62.6 °F - 53.6 °F 72% 29.94 in 12.0 mi West 6.9 mph - N/A   Clear
9:40 PM 59.0 °F - 51.8 °F 77% 29.94 in 10.0 mi West 6.9 mph - N/A   Clear
10:45 PM 57.2 °F - 51.8 °F 82% 29.94 in 10.0 mi West 8.1 mph - N/A   Clear
11:41 PM 57.2 °F - 50.0 °F 77% 29.93 in 10.0 mi ENE 4.6 mph - N/A   Clear